Regional Weather Roundup
Issued by NWS

Home | Current Version | Previous Version | Text Only | Print | Product List | Glossary On
Versions: 1 2 3 4 5 6 7 8 9 10 11 12 13 14 15 16 17 18 19 20 21 22 23 24 25 26 27 28 29 30 31 32 33 34 35 36 37 38 39 40 41 42 43 44 45 46 47
000
ASUS42 KFFC 301103
RWRGA
WEATHER ROUNDUP FOR GEORGIA
NATIONAL WEATHER SERVICE PEACHTREE CITY GA
700 AM EDT WED JUL 30 2014

NOTE: "FAIR" INDICATES FEW OR NO CLOUDS BELOW 12,000 FEET WITH NO
SIGNIFICANT WEATHER AND/OR OBSTRUCTIONS TO VISIBILITY.

* = USE WITH CAUTION. THE STATIONS MARKED WITH AN ASTERISK MAY NOT
REPORT WEATHER SUCH AS PRECIPITATION, FOG, OR THUNDER AND ARE NOT
QUALITY CONTROLLED BY NWS.

THE REMARK "TC" DENOTES TEMPERATURE READING IN DEGREES CELSIUS.

GAZ001>058-301200-
NORTH GEORGIA

CITY           SKY/WX    TMP DP  RH WIND       PRES   REMARKS
ATLANTA        PTCLDY    60  53  77 N6        30.04R
ATHENS         CLEAR     61  55  81 CALM      30.04R
CHAMBLEE       CLEAR     56  52  86 CALM      30.05R
PEACHTREE CITY CLEAR     56  54  93 CALM      30.05R
ROME           CLEAR     57  53  86 N3        30.07R
WEST ATLANTA   CLEAR     57  53  86 CALM      30.05R
GAINESVILLE    CLEAR     59  53  80 E3        30.07R
CARTERSVILLE   CLEAR     55  52  89 CALM      30.07R


CITY           SKY/WX    TMP DP  RH WIND       PRES   REMARKS
DALTON*        CLEAR     57  54  88 N5        30.07R
LAWRENCEVILLE* CLEAR     55  48  76 CALM      30.04
MARIETTA       PTCLDY    59  54  83 NW2       30.05S
KENNESAW*      PTCLDY    55  52  88 W5        30.07
$$

GAZ059>098-102>109-301200-
CENTRAL GEORGIA

CITY           SKY/WX    TMP DP  RH WIND       PRES   REMARKS
AUGUSTA-BUSH   PTCLDY    68  59  73 N6        29.99R
AUGUSTA-DANIEL PTCLDY    70  57  63 N7        30.01R
COLUMBUS       CLEAR     63  54  72 CALM      30.03R
MACON          CLEAR     59  59 100 W3        30.01S
ROBINS AFB     LGT RAIN  61  58  89 NW7       30.01R


CITY           SKY/WX    TMP DP  RH WIND       PRES   REMARKS
LAGRANGE*      CLEAR     58  57  97 CALM      30.05R
SYLVANIA*      PTCLDY    67  67 100 CALM      29.98S
MILLEDGEVILLE* CLEAR     59  57  94 CALM      30.01S
$$

GAZ099>101-110>166-301200-
SOUTH GEORGIA

CITY           SKY/WX    TMP DP  RH WIND       PRES   REMARKS
SAVANNAH       MOCLDY    71  63  75 CALM      29.96S
VALDOSTA       CLEAR     67  59  75 N3        29.98R
ALMA           MOCLDY    69  61  75 NW5       29.97S
ST SIMONS      PTCLDY    75  72  90 N6        29.95R
FT STEWART     MOCLDY    70  64  81 N2        29.95S HAZE
ALBANY         CLEAR     63  59  87 CALM      30.02S
HUNTER AFB     PTCLDY    74  65  72 N3        29.95R
MOODY AFB      CLEAR     66  64  93 N6        29.98R
BRUNSWICK      CLEAR     72  68  88 CALM      29.96R


CITY           SKY/WX    TMP DP  RH WIND       PRES   REMARKS
BAINBRIDGE*    CLEAR     68  63  83 CALM      30.01R
MOULTRIE*      CLEAR     68  63  83 CALM      30.00S
VIDALIA*         N/A     68  61  77 CALM      29.98S
WAYCROSS*      MOCLDY    70  65  84 N5        29.97S
DOUGLAS*       CLEAR     70  61  73 N3        30.00S
$$


USA.gov is the U.S. government's official web portal to all federal, state and local government web resources and services.